Weather History for KNPA - February, 2014

Change the Weather History Date:

Wednesday, February 26, 2014

  Actual Average (KPNS) Record (KPNS)
Temperature  
Mean Temperature 52 °F 57 °F  
Max Temperature 63 °F 66 °F 82 °F (1972)
Min Temperature 39 °F 48 °F 26 °F (1967)
Degree Days  
Heating Degree Days 13 9  
Month to date heating degree days 282  
Since 1 July heating degree days 1293  
Cooling Degree Days 0 0  
Month to date cooling degree days 0  
Year to date cooling degree days 6  
Growing Degree Days 2 (Base 50)    
Moisture  
Dew Point 52 °F    
Average Humidity 92    
Maximum Humidity 100    
Minimum Humidity 65    
Precipitation  
Precipitation 1.67 in 0.18 in 2.01 in (2003)
Month to date precipitation 4.69  
Year to date precipitation 9.32  
Snow  
Snow 0.00 in 0.00 in - ()
Month to date snowfall 0.0  
Since 1 July snowfall 0.0  
Snow Depth -    
Sea Level Pressure  
Sea Level Pressure 29.90 in    
Wind  
Wind Speed 7 mph (NNW)    
Max Wind Speed 21 mph    
Max Gust Speed 29 mph    
Visibility 6 miles    
Events Rain , Thunderstorm    
T = Trace of Precipitation, MM = Missing Value Source: NWS Daily Summary

Daily Weather History Graph

Daily Weather History Graph

Search for Another Location

Airport or City:

Trip Planner

Search our weather history database for the weather conditions in past years. The results will help you decide how hot, cold, wet, or windy it might be!

Date:

Astronomy

Feb. 26, 2014 Rise Set
Actual Time 6:18 AM CST 5:46 PM CST
Civil Twilight 5:54 AM CST 6:10 PM CST
Nautical Twilight 5:26 AM CST 6:38 PM CST
Astronomical Twilight 4:58 AM CST 7:05 PM CST
Moon 3:55 AM CST (2/26) 3:07 PM CST (2/26)
Length of Visible Light 12h 15m
Length of Day
11h 27m
Waning Crescent, 10% of the Moon is Illuminated
Feb 26
Waning Crescent
Mar 1
New
Mar 8
First Quarter
Mar 16
Full
Mar 23
Last Quarter

Hourly Weather History & Observations

Time (CST) Temp. Windchill Dew Point Humidity Pressure Visibility Wind Dir Wind Speed Gust Speed Precip Events Conditions
12:34 AM 62.1 °F - 62.1 °F 100% 29.92 in 6.0 mi SSW 5.8 mph - 0.00 in Rain Light Rain
12:56 AM 63.0 °F - 63.0 °F 100% 29.91 in 5.0 mi Calm Calm - 0.00 in Rain Light Rain
1:04 AM 63.0 °F - 62.1 °F 97% 29.91 in 2.5 mi West 3.5 mph - 0.04 in Rain , Thunderstorm Heavy Thunderstorms and Rain
1:13 AM 63.0 °F - 63.0 °F 100% 29.91 in 1.0 mi NNW 4.6 mph - 0.18 in Rain , Thunderstorm Heavy Thunderstorms and Rain
1:24 AM 62.1 °F - 62.1 °F 100% 29.92 in 1.2 mi NW 4.6 mph - 0.30 in Rain Heavy Rain
1:38 AM 62.1 °F - 62.1 °F 100% 29.91 in 1.0 mi WNW 3.5 mph - 0.50 in Rain Heavy Rain
1:54 AM 62.6 °F - 62.6 °F 100% 29.89 in 1.8 mi South 4.6 mph - 0.64 in Rain Heavy Rain
1:56 AM 62.1 °F - 62.1 °F 100% 29.90 in 2.0 mi South 4.6 mph - 0.65 in Rain Heavy Rain
1:59 AM 62.1 °F - 62.1 °F 100% 29.89 in 3.0 mi South 6.9 mph - 0.00 in Rain Rain
2:51 AM 62.6 °F - 62.6 °F 100% 29.87 in 1.8 mi West 3.5 mph - N/A Rain Heavy Rain
2:56 AM 63.0 °F - 63.0 °F 100% 29.88 in 1.8 mi WSW 5.8 mph - N/A Rain Heavy Rain
3:31 AM 63.0 °F - 63.0 °F 100% 29.83 in 3.0 mi South 6.9 mph - 0.33 in Rain Heavy Rain
3:56 AM 63.0 °F - 63.0 °F 100% 29.86 in 5.0 mi WNW 4.6 mph - 0.34 in Rain Rain
4:04 AM 63.0 °F - 63.0 °F 100% 29.85 in 4.0 mi WNW 4.6 mph - 0.02 in Rain Rain
4:11 AM 63.0 °F - 62.1 °F 97% 29.84 in 3.0 mi Calm Calm - 0.04 in Rain , Thunderstorm Heavy Thunderstorms and Rain
4:18 AM 63.0 °F - 62.1 °F 97% 29.84 in 3.0 mi Calm Calm - 0.05 in Rain , Thunderstorm Heavy Thunderstorms and Rain
4:24 AM 63.0 °F - 62.1 °F 97% 29.84 in 4.0 mi WNW 3.5 mph - 0.05 in Rain , Thunderstorm Thunderstorms and Rain
4:38 AM 62.1 °F - 61.0 °F 96% 29.85 in 6.0 mi NNW 8.1 mph - 0.08 in Rain Heavy Rain
4:51 AM 59.0 °F - 59.0 °F 100% 29.85 in 5.0 mi North 10.4 mph - 0.12 in Rain Heavy Rain
4:56 AM 59.0 °F - 59.0 °F 100% 29.86 in 5.0 mi North 8.1 mph - 0.13 in Rain Heavy Rain
5:56 AM 59.0 °F - 57.9 °F 96% 29.84 in 3.0 mi North 4.6 mph - 0.11 in Rain Rain
6:30 AM 59.0 °F - 57.9 °F 96% 29.86 in 4.0 mi NNW 4.6 mph - N/A Rain Rain
6:34 AM 57.9 °F - 57.9 °F 100% 29.87 in 2.0 mi NNW 3.5 mph - N/A Rain Rain
6:43 AM 59.0 °F - 57.9 °F 96% 29.88 in 2.0 mi North 12.7 mph 19.6 mph N/A Rain Rain
6:47 AM 57.9 °F - 57.0 °F 97% 29.88 in 2.0 mi NNW 13.8 mph 21.9 mph N/A Rain Rain
6:56 AM 57.0 °F - 55.9 °F 96% 29.90 in 2.0 mi NNW 11.5 mph - 0.10 in Rain Heavy Rain
7:39 AM 54.0 °F - 53.1 °F 97% 29.91 in 3.0 mi North 11.5 mph - 0.05 in Rain Rain
7:56 AM 53.1 °F - 52.0 °F 96% 29.92 in 4.0 mi North 13.8 mph 21.9 mph 0.25 in Rain Light Rain
8:49 AM 51.1 °F - 48.9 °F 92% 29.94 in 10.0 mi North 12.7 mph 24.2 mph 0.04 in   Overcast
8:56 AM 51.1 °F - 48.9 °F 92% 29.95 in 10.0 mi North 15.0 mph 25.3 mph 0.04 in   Overcast
9:39 AM 51.1 °F - 48.0 °F 89% 29.94 in 10.0 mi NNE 20.7 mph 28.8 mph 0.00 in Rain Light Rain
9:56 AM 51.1 °F - 48.0 °F 89% 29.94 in 10.0 mi North 18.4 mph 24.2 mph 0.00 in Rain Light Rain
10:56 AM 50.0 °F - 46.9 °F 89% 29.95 in 10.0 mi North 10.4 mph - 0.00 in Rain Light Rain
11:56 AM 48.0 °F - 46.0 °F 93% 29.94 in 10.0 mi North 12.7 mph 20.7 mph 0.00 in Rain Light Rain
12:14 PM 46.9 °F - 45.0 °F 93% 29.91 in 10.0 mi North 11.5 mph 20.7 mph 0.00 in Rain Light Rain
12:56 PM 46.9 °F - 44.1 °F 90% 29.89 in 10.0 mi North 11.5 mph 23.0 mph 0.05 in Rain Light Rain
1:56 PM 46.0 °F 40.2 °F 43.0 °F 89% 29.90 in 10.0 mi North 12.7 mph 19.6 mph 0.00 in Rain Light Rain
2:18 PM 46.0 °F 41.9 °F 43.0 °F 89% 29.88 in 10.0 mi North 8.1 mph - 0.00 in   Overcast
2:56 PM 45.0 °F 38.5 °F 41.0 °F 86% 29.89 in 10.0 mi North 13.8 mph 21.9 mph 0.00 in   Overcast
3:56 PM 45.0 °F 38.5 °F 39.9 °F 82% 29.90 in 10.0 mi NNW 13.8 mph 18.4 mph N/A   Overcast
4:56 PM 44.1 °F 37.4 °F 37.9 °F 79% 29.91 in 10.0 mi North 13.8 mph 24.2 mph N/A   Overcast
5:56 PM 44.1 °F 38.6 °F 36.0 °F 73% 29.94 in 10.0 mi North 10.4 mph 21.9 mph N/A   Overcast
6:56 PM 44.1 °F 39.0 °F 36.0 °F 73% 29.96 in 10.0 mi North 9.2 mph - N/A   Overcast
7:56 PM 43.0 °F 37.2 °F 35.1 °F 74% 29.96 in 10.0 mi North 10.4 mph - N/A   Mostly Cloudy
8:27 PM - - - N/A% - - North - - N/A   Unknown
8:56 PM 43.0 °F 36.4 °F 32.0 °F 65% 30.00 in 10.0 mi NNW 12.7 mph 20.7 mph N/A   Scattered Clouds
9:56 PM 42.1 °F 35.2 °F 30.9 °F 65% 30.01 in 10.0 mi North 12.7 mph 21.9 mph N/A   Scattered Clouds
10:56 PM 41.0 °F 33.9 °F 30.0 °F 65% 30.02 in 10.0 mi North 12.7 mph - N/A   Clear
11:56 PM 39.9 °F 31.4 °F 30.0 °F 68% 30.01 in 10.0 mi NNW 16.1 mph 20.7 mph N/A   Clear